Powrót do katalogu

OPS 4682 DEB

AktywnyPO
NORAD 38414·DEBRIS·🇺🇸 United States

Wystrzelony Apr 3, 1965 z Vandenberg Space Force Base

Loading…

Następne Przeloty (najbliższe 24 godziny)

TLE

Starzejące sięSource: Space-Track

Epoka: Sep 8, 2026, 01:00 UTC

1 38414U 65027DT  26251.04220521  .00000724  00000-0  24402-2 0  9999
2 38414  90.2373 354.1592 0038478 246.7195 112.9874 12.98118567151556

Śledź OPS 4682 DEB w czasie rzeczywistym z AllMySat

Download on the App Store